Location: Brotuna
(46.2000°N, 22.6000°E)
Time: 11:02:25
(UTC+00:00)

CZ-2C R/B - Pass Details

Date: 09 April 2020
Orbit: 785 x 870 km, 98.3° (Epoch: 28 May)

Event Time Altitude Azimuth Distance (km) Brightness Sun altitude
Rises 17:36:19 0° 28° (NNE) 3,287 5.7 -5.3°
Reaches altitude 10° 17:39:20 10° 46° (NE) 2,355 4.8 -5.8°
Maximum altitude 17:42:57 19° 90° (E) 1,818 3.9 -6.4°
Drops below altitude 10° 17:46:34 10° 135° (SE) 2,360 4.5 -7.0°
Sets 17:49:35 0° 153° (SSE) 3,296 5.3 -7.5°
